This is the latest recevied weather packets stored in our database for station/object DL3MEB-6. If no packets are shown the sender has not sent any weather packets the latest 1 day(s).
| Time | Temp. | Humidity | Pressure | Rain* | Wind** | Luminosity | Snow |
|---|---|---|---|---|---|---|---|
| 1836274364 | 11.11° C | 96% | 1020.8 hPa | 0 mm | 0 m/s | - | - |
| 1836274213 | 11.67° C | 96% | 1020.8 hPa | 0 mm | 0 m/s | - | - |
| 1778023797 | 13.33° C | 82% | 1007 hPa | 0 mm | 0.45 m/s, 192° | - | - |
| 1778022890 | 13.33° C | 81% | 1007 hPa | 0 mm | 0.89 m/s, 172° | - | - |
| 1778021981 | 13.89° C | 83% | 1007.2 hPa | 0 mm | 0.89 m/s, 185° | - | - |
| 1778021069 | 13.89° C | 84% | 1007.1 hPa | 0 mm | 1.79 m/s, 200° | - | - |
| 1778020161 | 14.44° C | 84% | 1006.9 hPa | 0 mm | 2.24 m/s, 200° | - | - |
| 1778019261 | 14.44° C | 83% | 1007 hPa | 0 mm | 0.89 m/s, 230° | - | - |
| 1778018350 | 15° C | 79% | 1007 hPa | 0 mm | 0.45 m/s, 217° | - | - |
| 1778017449 | 15° C | 76% | 1007 hPa | 0 mm | 2.68 m/s, 240° | - | - |
| 1778016548 | 15° C | 73% | 1007.2 hPa | 0 mm | 2.24 m/s, 222° | - | - |
| 1778015648 | 15° C | 72% | 1007.3 hPa | 0 mm | 2.68 m/s, 240° | - | - |
| 1778014738 | 15° C | 72% | 1007.2 hPa | 0 mm | 1.79 m/s, 237° | - | - |
| 1778013830 | 15° C | 70% | 1007.2 hPa | 0 mm | 2.24 m/s, 215° | - | - |
| 1778012923 | 15° C | 70% | 1006.9 hPa | 0 mm | 2.68 m/s, 237° | - | - |
| 1778012009 | 15° C | 70% | 1006.8 hPa | 0 mm | 2.68 m/s, 239° | - | - |
| 1778011098 | 15.56° C | 69% | 1006.3 hPa | 0 mm | 2.68 m/s, 224° | - | - |
| 1778010194 | 15.56° C | 68% | - | 0 mm | 2.24 m/s, 217° | - | - |
| 1778010190 | 15.56° C | 68% | 1006 hPa | 0 mm | 2.24 m/s, 217° | - | - |
| 1778009289 | 15.56° C | 67% | 1005.2 hPa | 0 mm | 0.45 m/s, 316° | - | - |
| 1778008381 | 15.56° C | 66% | 1005.5 hPa | 0 mm | 0.45 m/s, 319° | - | - |
| 1778007472 | 16.11° C | 65% | 1005.3 hPa | 0 mm | 0 m/s | - | - |
| 1778006565 | 16.11° C | 64% | 1005.5 hPa | 0 mm | 1.34 m/s, 274° | - | - |
| 1778005657 | 16.11° C | 62% | 1005.4 hPa | 0 mm | 2.68 m/s, 268° | - | - |
| 1778004751 | 17.22° C | 61% | 1005.4 hPa | 0 mm | 3.58 m/s, 258° | - | - |
* Rain latest hour (hover to see other rain measurements)
** Current wind speed in m/s (hover to see current wind gust speed)